Location: Peebles
(55.6412°N, 3.1714°W)
Time: 14:47:08
(UTC+01:00)

FLOCK 4S 45 - Pass Details

Date: 10 July 2022
Orbit: 507 x 523 km, 97.4° (Epoch: 17 August)

Event Time Altitude Azimuth Distance (km) Brightness Sun altitude
Rises 23:07:13 0° 207° (SSW) 2,653 ? -7.4°
Reaches altitude 10° 23:09:54 10° 228° (SW) 1,768 ? -7.6°
Maximum altitude 23:12:29 17° 271° (W) 1,370 ? -7.8°
Drops below altitude 10° 23:15:05 10° 314° (NW) 1,773 ? -7.9°
Sets 23:17:47 0° 334° (NNW) 2,665 ? -8.1°
